Regional Weather Roundup
Issued by NWS

Home | Current Version | Previous Version | Text Only | Print | Product List | Glossary On
Versions: 1 2 3 4 5 6 7 8 9 10 11 12 13 14 15 16 17 18 19 20 21 22 23 24 25 26 27 28 29 30 31 32 33 34 35 36 37 38 39 40 41 42 43 44 45 46 47 48 49 50
000
ASUS42 KTBW 172117
RWRFL
FLORIDA REGIONAL WEATHER ROUNDUP
NATIONAL WEATHER SERVICE TAMPA BAY RUSKIN FL
400 PM EST SUN DEC 17 2017

NOTE: "FAIR" INDICATES FEW OR NO CLOUDS BELOW 12,000 FEET WITH NO
SIGNIFICANT WEATHER AND/OR OBSTRUCTIONS TO VISIBILITY.

FLZ001>010-012>015-112-114-115-172200-
PANHANDLE FLORIDA

CITY           SKY/WX    TMP DP  RH WIND       PRES   REMARKS
PENSACOLA      LGT RAIN  68  64  87 SE5       30.10F
PENSACOLA NAS  CLOUDY    70  65  84 S7        30.09F
MILTON NAS     CLOUDY    69  67  93 SE7       30.11
CRESTVIEW      LGT RAIN  70  65  84 S3        30.14S
DUKE FIELD     PTSUNNY   70  65  84 S9        30.12S
VALPARAISO     LGT RAIN  67  64  91 SE8       30.12F FOG
MARY ESTHER    LGT RAIN  68  66  93 SE7       30.11
PANAMA CITY    CLOUDY    70  64  81 MISG      30.15S
TYNDALL AFB    CLOUDY    70  65  83 SE12      30.15F
APALACHICOLA   CLOUDY    67  67 100 SE8       30.17F

STATION/POSITION SKY/WX   TEMP    WIND        PRES    WAVE   SWELL
                          AIR SEA DIR/SP/G            HT/PER HT/PER
                          (F)     (DEG/KT/KT) (MB)    (FT/S) (FT/S)
29.2N   88.2W              76 74  170/ 17/ 21 1018.7
28.8N   86.0W              73 73  160/ 14/ 17 1020.4R   4/ 5
PANAMA CITY BEAC           65 63  120/ 13/ 14 1021.4R
TOWER C                    67     160/ 11/ 12 1022.1R

$$
FLZ011-016>038-118-127-128-134-139-239-172200-
NORTH FLORIDA

CITY           SKY/WX    TMP DP  RH WIND       PRES   REMARKS
MARIANNA       CLOUDY    74  61  63 SW10      30.14S
TALLAHASSEE    PTSUNNY   70  61  73 S8        30.18F
PERRY          PTSUNNY   74  61  63 SW9       30.21S
LIVE OAK       PTSUNNY   77  59  53 S7        30.20F
CROSS CITY     MOSUNNY   74  62  65 SW9       30.24R
LAKE CITY      FAIR      73  57  56 SW8       30.20S
GAINESVILLE    SUNNY     74  59  59 S3        30.21F
WILLISTON      SUNNY     81  61  50 SE7       30.19S
PALATKA        CLOUDY    75  61  60 S6        30.20S
MAYPORT NAS    SUNNY     66  58  75 NE8       30.21R
JACKSONVILLE   PTSUNNY   75  59  57 S6        30.20R
JAX NAS        PTSUNNY   75  56  51 S7        30.20S
JAX CECIL      MOSUNNY   77  61  57 SW8       30.19S
ST AUGUSTINE   SUNNY     69  61  75 E6        30.21S
PALM COAST     PTSUNNY   73  63  68 E7        30.20R

STATION/POSITION SKY/WX   TEMP    WIND        PRES    WAVE   SWELL
                          AIR SEA DIR/SP/G            HT/PER HT/PER
                          (F)     (DEG/KT/KT) (MB)    (FT/S) (FT/S)
SHELL POINT      NOT AVBL
KEATON BEACH               63     180/  6/  6 1022.7R
CEDAR KEY                  68     190/  3/  4 1022.6F
FERNANDINA                 66 58   80/  4/  6 1023.9R
30.7N   81.3W                 63                N/A     2/10
MAYPORT                    64 61   40/  8/  8 1023.3R
31.4N   80.9W              61 60  350/  2/  4 1023.4R   2/10   2/10
ST AUGUSTINE               66 65  360/  4/  4 1023.0S

$$
FLZ040-043>046-052-053-057-058-063-144-172200-
INTERIOR CENTRAL FLORIDA

CITY           SKY/WX    TMP DP  RH WIND       PRES   REMARKS
OCALA          CLOUDY    76  61  59 S7        30.20S
LEESBURG       SUNNY     78  62  57 SE5       30.20S
SANFORD        MOSUNNY   77  62  59 SE8       30.19S
ORLANDO EXEC   MOSUNNY   79  61  53 S5        30.19S
ORLANDO INTL   PTSUNNY   77  60  55 SE5       30.19S
KISSIMMEE      MOSUNNY   78  60  53 S7        30.20S
WINTER HAVEN   PTSUNNY   78  59  51 CALM      30.20S
LAKELAND       PTSUNNY   79  61  53 SW5       30.20R
BARTOW         MOSUNNY   79  59  50 SW12      30.19S
SEBRING        FAIR      80  64  56 S6        30.18S
OKEECHOBEE     CLOUDY    79  66  65 E5        30.18R

$$
FLZ041-047-054-059-064-141-147-172200-
EAST CENTRAL FLORIDA

CITY           SKY/WX    TMP DP  RH WIND       PRES   REMARKS
ORMOND BEACH   MOSUNNY   72  63  73 E7        30.20R
DAYTONA BEACH  PTSUNNY   74  62  68 E7        30.19R
DELAND         SUNNY     77  61  57 S7        30.19S
NEW SMYRNA BEA MOSUNNY   75  63  64 E6        30.20F
JFK SPACE CTR  SUNNY     76  68  76 S6        30.19R
TITUSVILLE     MOSUNNY   75  64  69 SE12      30.20R
CAPE CANAVERAL SUNNY     76  63  65 SE6       30.19R
PATRICK AFB    SUNNY     74  68  79 SE8       30.19R
MELBOURNE      SUNNY     77  63  61 E10       30.19S
VERO BEACH     SUNNY     77  65  66 SE9       30.19F
FT PIERCE      MOSUNNY   76  66  71 SE12      30.19S
STUART         MOSUNNY   77  68  73 E10       30.20S

STATION/POSITION SKY/WX   TEMP    WIND        PRES    WAVE   SWELL
                          AIR SEA DIR/SP/G            HT/PER HT/PER
                          (F)     (DEG/KT/KT) (MB)    (FT/S) (FT/S)
28.5N   80.2W              75 77  140/  8/ 10 1022.5S   2/10   2/10
TRIDENT PIER               75 68   90/  3/  4 1024.2R
28.4N   80.5W                 70                N/A     1/10
27.5N   80.2W                 72                N/A     2/ 4

$$
FLZ050-056-061-142-242-148-248-149-249-151-251-155-255-
160-260-172200-
WEST CENTRAL FLORIDA

CITY           SKY/WX    TMP DP  RH WIND       PRES   REMARKS
CRYSTAL RIVER  FAIR      75  61  60 SW3       30.19S
INVERNESS      FAIR      79  61  53 S9        30.19S
BROOKSVILLE    MOSUNNY   78  59  51 S6        30.20S
CLEARWATER AIR FAIR      77  59  53 S3        30.18F
ST PETE CLEARW SUNNY     76  63  64 N5        30.19S
TAMPA INTL     PTSUNNY   78  61  55 SW5       30.20R
TAMPA EXEC     MOSUNNY   79  61  53 CALM      30.19S
PLANT CITY     PTSUNNY   81  57  44 S3        30.21S
MACDILL AFB    SUNNY     79  61  53 NW5       30.19R
PETER O KNIGHT   N/A     77  61  57 W3        30.19S
ST PETERSBURG  SUNNY     74  63  68 CALM      30.17S
SARASOTA       CLOUDY    77  65  66 W6        30.17R
VENICE         NOT AVBL

STATION/POSITION SKY/WX   TEMP    WIND        PRES    WAVE   SWELL
                          AIR SEA DIR/SP/G            HT/PER HT/PER
                          (F)     (DEG/KT/KT) (MB)    (FT/S) (FT/S)
27.3N   84.2W                 75                N/A     3/ 5
CLEARWATER BEACH           72 64  210/  5/  6 1022.4S
MIDDLE TAMPA BAY           71      20/  3/  3 1022.4R
VENICE                     75 68  230/  4/  4 1022.0R

$$
FLZ066-069-070-075>078-162-262-165-265-172200-
SOUTHWEST FLORIDA AND KEYS

CITY           SKY/WX    TMP DP  RH WIND       PRES   REMARKS
PUNTA GORDA    MOSUNNY   80  64  58 SE5       30.19S
FT MYERS       PTSUNNY   82  65  56 CALM      30.16S
SOUTHWEST INTL MOSUNNY   81  65  58 SE6       30.17S
NAPLES         MOSUNNY   80  68  66 N7        30.16R
MARCO ISLAND   PTSUNNY   81  69  67 S9        30.17R
IMMOKALEE      PTSUNNY   81  66  61 E3        30.18S
MARATHON       MOSUNNY   79  70  74 E9        30.14S
KEY WEST NAS   PTSUNNY   78  75  90 E12       30.13S
KEY WEST INTL  SUNNY     78  72  81 E10       30.14R

STATION/POSITION SKY/WX   TEMP    WIND        PRES    WAVE   SWELL
                          AIR SEA DIR/SP/G            HT/PER HT/PER
                          (F)     (DEG/KT/KT) (MB)    (FT/S) (FT/S)
NAPLES                        70  200/  2/  3 1021.3R
DRY TORTUGAS               76      90/ 12/ 12 1020.4R
SAND KEY                   78                 1020.8R
MOLASSES REEF              77 77  120/ 12/ 13 1021.4R

$$
FLZ067-068-071>074-168-172>174-172200-
SOUTHEAST FLORIDA

CITY           SKY/WX    TMP DP  RH WIND       PRES   REMARKS
W PALM BEACH   PTSUNNY   75  71  87 NE9       30.19S
BOCA RATON     MOSUNNY   77  68  73 SE8       30.18S
FT LAUDER-EXEC MOSUNNY   79  69  71 SE9       30.17S
FT LAUDERDALE  MOSUNNY   77  70  79 E13       30.17S
POMPANO BEACH  PTSUNNY   79  69  71 SE12      30.17S
PEMBROKE PINES PTSUNNY   80  67  64 E9        30.18S
OPA LOCKA      PTSUNNY   79  68  69 E13       30.18R
MIAMI          PTSUNNY   79  68  69 E12       30.17S
WEST KENDALL   CLOUDY    78  67  68 E9        30.17S
HOMESTEAD      CLOUDY    77  72  84 E8        30.17R

STATION/POSITION SKY/WX   TEMP    WIND        PRES    WAVE   SWELL
                          AIR SEA DIR/SP/G            HT/PER HT/PER
                          (F)     (DEG/KT/KT) (MB)    (FT/S) (FT/S)
PORT EVERGLADES            78     130/  6/  9 1021.8F
VIRGINIA KEY               76 73   80/  6/  8 1021.5R
LAKE WORTH                 75 76   90/ 11/ 13 1022.8S
FOWEY ROCKS                76 76   90/ 12/ 13 1022.2R
SETTLEMENT POINT           72      70/ 11/ 13 1022.4F

$$




USA.gov is the U.S. government's official web portal to all federal, state and local government web resources and services.